Andover, NJ

10:16 PM EST on December 15, 2019 (GMT -0500)
Andover

Weather History for K12N - September, 2019

Change the Weather History Date:

Monday, September 30, 2019

  Actual Average (KFWN) Record (KFWN)
Temperature  
Mean Temperature 59 °F -  
Max Temperature 64 °F 67 °F 84 °F (1953)
Min Temperature 54 °F 42 °F 30 °F (1951)
Degree Days  
Heating Degree Days 6    
Growing Degree Days 9 (Base 50)    
Moisture  
Dew Point 48 °F    
Average Humidity 67    
Maximum Humidity 86    
Minimum Humidity 53    
Precipitation  
Precipitation 0.00 in - - ()
Sea Level Pressure  
Sea Level Pressure 30.29 in    
Wind  
Wind Speed 3 mph (ENE)    
Max Wind Speed 7 mph    
Max Gust Speed -    
Averages and records for this station are not official NWS values.
T = Trace of Precipitation, MM = Missing Value Source: NWS Daily Summary

Daily Weather History Graph

Daily Weather History Graph

Search for Another Location

Airport or City:

Astronomy

Sep. 30, 2019 Rise Set
Actual Time 6:54 AM EDT 6:43 PM EDT
Civil Twilight 6:26 AM EDT 7:10 PM EDT
Nautical Twilight 5:54 AM EDT 7:42 PM EDT
Astronomical Twilight 5:22 AM EDT 8:14 PM EDT
Moon 8:56 AM EDT (9/30) 8:16 PM EDT (9/30)
Length of Visible Light 12h 43m
Length of Day
11h 48m
Waxing Crescent, 5% of the Moon is Illuminated
Sep 30
Waxing Crescent
Oct 5
First Quarter
Oct 13
Full
Oct 21
Last Quarter
Oct 27
New

Hourly Weather History & Observations

Time (EDT) Temp. Dew Point Humidity Pressure Visibility Wind Dir Wind Speed Gust Speed Precip Events Conditions
12:54 AM 57.9 °F 41.0 °F 53% 30.32 in - NE 4.6 mph - N/A   Unknown
1:54 AM 57.9 °F 41.0 °F 53% 30.33 in - NE 5.8 mph - N/A   Unknown
2:54 AM 57.0 °F 42.1 °F 57% 30.30 in - NE 5.8 mph - N/A   Unknown
3:54 AM 55.0 °F 42.1 °F 62% 30.31 in - Calm Calm - N/A   Unknown
4:54 AM 55.0 °F 42.1 °F 62% 30.31 in - NE 4.6 mph - N/A   Unknown
5:54 AM 54.0 °F 42.1 °F 64% 30.32 in - NE 3.5 mph - N/A   Unknown
6:54 AM 54.0 °F 42.1 °F 64% 30.34 in - NE 5.8 mph - N/A   Unknown
7:54 AM 54.0 °F 42.1 °F 64% 30.35 in - Variable 3.5 mph - N/A   Unknown
8:54 AM 55.9 °F 44.1 °F 64% 30.35 in - Variable 3.5 mph - N/A   Unknown
9:54 AM 59.0 °F 45.0 °F 60% 30.35 in - Variable 3.5 mph - N/A   Unknown
10:54 AM 62.1 °F 46.9 °F 58% 30.34 in - Calm Calm - N/A   Unknown
11:54 AM 63.0 °F 48.0 °F 58% 30.32 in - SSE 4.6 mph - N/A   Unknown
12:54 PM 64.0 °F 48.9 °F 58% 30.31 in - SSE 6.9 mph - N/A   Unknown
1:54 PM 64.0 °F 50.0 °F 60% 30.29 in - Calm Calm - N/A   Unknown
2:54 PM 64.0 °F 52.0 °F 65% 30.27 in - Calm Calm - N/A   Unknown
3:54 PM 64.0 °F 54.0 °F 70% 30.25 in - Calm Calm - N/A   Unknown
5:54 PM 63.0 °F 55.9 °F 78% 30.24 in - Calm Calm - N/A   Unknown
6:54 PM 62.1 °F 55.9 °F 80% 30.23 in - Variable 3.5 mph - N/A   Unknown
7:54 PM 62.1 °F 55.9 °F 80% 30.23 in - Variable 3.5 mph - N/A   Unknown
9:54 PM 61.0 °F 55.9 °F 83% 30.23 in - Calm Calm - N/A   Unknown
10:54 PM 60.1 °F 55.9 °F 86% 30.23 in - Calm Calm - N/A   Unknown
11:54 PM 60.1 °F 55.9 °F 86% 30.21 in - Calm Calm - N/A   Unknown